| time (UTC) | temp F | wind direction | speed MPH | gust MPH | rain 1hr in | rain 24hr in | rain mn in | humidity % | barometer mb |
| 20260507103505 | 36 | 255 | 14.0 | 17.0 | 0.00 | 0.00 | 0.00 | 91 | 1012.5 |
| 20260507103005 | 36 | 257 | 13.0 | 17.0 | 0.00 | 0.00 | 0.00 | 92 | 1012.5 |
| 20260507102504 | 36 | 251 | 14.0 | 16.0 | 0.00 | 0.00 | 0.00 | 92 | 1012.5 |
| 20260507102006 | 36 | 251 | 14.0 | 16.0 | 0.00 | 0.00 | 0.00 | 92 | 1012.5 |
| 20260507101504 | 36 | 252 | 13.0 | 15.0 | 0.00 | 0.00 | 0.00 | 92 | 1012.5 |
| 20260507101004 | 36 | 248 | 13.0 | 15.0 | 0.00 | 0.00 | 0.00 | 92 | 1012.8 |
| 20260507100504 | 36 | 248 | 13.0 | 15.0 | 0.00 | 0.00 | 0.00 | 92 | 1012.7 |
| 20260507100005 | 36 | 247 | 11.0 | 16.0 | 0.00 | 0.00 | 0.00 | 92 | 1012.8 |
| 20260507095504 | 36 | 247 | 13.0 | 16.0 | 0.00 | 0.00 | 0.00 | 93 | 1012.9 |
| 20260507095005 | 36 | 251 | 12.0 | 15.0 | 0.00 | 0.00 | 0.00 | 93 | 1012.9 |
| 20260507094504 | 36 | 254 | 12.0 | 15.0 | 0.00 | 0.00 | 0.00 | 93 | 1012.9 |
| 20260507094004 | 36 | 258 | 11.0 | 14.0 | 0.00 | 0.00 | 0.00 | 93 | 1013.0 |
| 20260507093003 | 36 | 257 | 12.0 | 15.0 | 0.00 | 0.00 | 0.00 | 93 | 1013.0 |
| 20260507092504 | 36 | 252 | 12.0 | 15.0 | 0.00 | 0.00 | 0.00 | 93 | 1013.1 |
| 20260507092004 | 36 | 250 | 12.0 | 15.0 | 0.00 | 0.00 | 0.00 | 93 | 1013.2 |
| 20260507091004 | 36 | 252 | 12.0 | 15.0 | 0.00 | 0.00 | 0.00 | 94 | 1013.3 |
| 20260507090504 | 36 | 254 | 12.0 | 15.0 | 0.00 | 0.00 | 0.00 | 94 | 1013.5 |
| 20260507085504 | 35 | 251 | 13.0 | 15.0 | 0.00 | 0.00 | 0.00 | 94 | 1013.7 |
| 20260507085004 | 35 | 253 | 12.0 | 15.0 | 0.00 | 0.00 | 0.00 | 94 | 1013.8 |
| 20260507084503 | 35 | 253 | 13.0 | 15.0 | 0.00 | 0.00 | 0.00 | 94 | 1013.7 |
| 20260507084004 | 35 | 249 | 13.0 | 15.0 | 0.00 | 0.00 | 0.00 | 93 | 1013.7 |
| 20260507083504 | 36 | 247 | 11.0 | 15.0 | 0.00 | 0.00 | 0.00 | 93 | 1013.7 |
| 20260507083004 | 35 | 256 | 11.0 | 17.0 | 0.00 | 0.00 | 0.00 | 92 | 1013.8 |
| 20260507082504 | 36 | 250 | 13.0 | 17.0 | 0.00 | 0.00 | 0.00 | 92 | 1013.8 |
| 20260507082003 | 36 | 246 | 13.0 | 17.0 | 0.00 | 0.00 | 0.00 | 92 | 1013.8 |
| 20260507081504 | 36 | 253 | 14.0 | 17.0 | 0.00 | 0.00 | 0.00 | 92 | 1013.9 |
| 20260507081004 | 36 | 254 | 13.0 | 18.0 | 0.00 | 0.00 | 0.00 | 92 | 1014.2 |
| 20260507080505 | 36 | 251 | 14.0 | 20.0 | 0.00 | 0.00 | 0.00 | 91 | 1014.3 |
| 20260507075503 | 36 | 246 | 16.0 | 20.0 | 0.00 | 0.00 | 0.00 | 92 | 1014.5 |
| 20260507074504 | 35 | 241 | 14.0 | 18.0 | 0.00 | 0.00 | 0.00 | 92 | 1014.7 |
| 20260507074003 | 35 | 247 | 13.0 | 17.0 | 0.00 | 0.00 | 0.00 | 92 | 1014.8 |
| 20260507073509 | 36 | 246 | 14.0 | 17.0 | 0.00 | 0.00 | 0.00 | 92 | 1015.0 |
| 20260507073009 | 35 | 244 | 14.0 | 16.0 | 0.00 | 0.00 | 0.00 | 93 | 1015.0 |
| 20260507072008 | 36 | 243 | 13.0 | 15.0 | 0.00 | 0.00 | 0.00 | 92 | 1015.1 |
| 20260507071508 | 36 | 240 | 12.0 | 15.0 | 0.00 | 0.00 | 0.00 | 92 | 1015.2 |
| 20260507071008 | 36 | 240 | 10.0 | 15.0 | 0.00 | 0.00 | 0.00 | 93 | 1015.2 |
| 20260507070012 | 36 | 239 | 10.0 | 14.0 | 0.00 | 0.01 | 0.00 | 92 | 1015.3 |
| 20260507064508 | 36 | 240 | 12.0 | 15.0 | 0.00 | 0.01 | 0.00 | 92 | 1015.5 |
| 20260507064010 | 36 | 239 | 10.0 | 15.0 | 0.00 | 0.01 | 0.00 | 91 | 1015.5 |
| 20260507063508 | 37 | 238 | 12.0 | 15.0 | 0.00 | 0.01 | 0.00 | 91 | 1015.5 |
| 20260507062508 | 37 | 235 | 12.0 | 16.0 | 0.00 | 0.01 | 0.00 | 90 | 1015.7 |
| 20260507062010 | 37 | 239 | 13.0 | 16.0 | 0.00 | 0.01 | 0.00 | 90 | 1015.7 |
| 20260507061509 | 37 | 240 | 13.0 | 20.0 | 0.00 | 0.01 | 0.00 | 90 | 1015.8 |
| 20260507061009 | 37 | 241 | 12.0 | 20.0 | 0.00 | 0.01 | 0.00 | 90 | 1015.8 |
| 20260507060509 | 37 | 241 | 15.0 | 20.0 | 0.00 | 0.01 | 0.00 | 90 | 1015.9 |
| 20260507060009 | 37 | 247 | 14.0 | 20.0 | 0.00 | 0.01 | 0.00 | 90 | 1015.9 |
| 20260507055508 | 37 | 245 | 14.0 | 18.0 | 0.00 | 0.01 | 0.00 | 91 | 1016.0 |
| 20260507055009 | 37 | 238 | 14.0 | 18.0 | 0.00 | 0.01 | 0.00 | 91 | 1016.0 |
| 20260507054508 | 37 | 238 | 13.0 | 16.0 | 0.00 | 0.01 | 0.00 | 91 | 1016.0 |
| 20260507054008 | 37 | 235 | 12.0 | 16.0 | 0.00 | 0.01 | 0.00 | 91 | 1015.9 |
| 20260507053509 | 37 | 236 | 12.0 | 15.0 | 0.00 | 0.01 | 0.00 | 91 | 1015.9 |
| 20260507053009 | 37 | 238 | 11.0 | 15.0 | 0.00 | 0.01 | 0.00 | 90 | 1016.0 |
| 20260507052508 | 37 | 239 | 12.0 | 15.0 | 0.00 | 0.01 | 0.00 | 90 | 1016.0 |
| 20260507052010 | 37 | 236 | 12.0 | 14.0 | 0.00 | 0.01 | 0.00 | 90 | 1016.1 |
| 20260507051508 | 37 | 239 | 12.0 | 14.0 | 0.00 | 0.01 | 0.00 | 90 | 1016.1 |
| 20260507051008 | 37 | 240 | 12.0 | 15.0 | 0.00 | 0.01 | 0.00 | 90 | 1016.1 |
| 20260507050509 | 37 | 239 | 12.0 | 15.0 | 0.00 | 0.01 | 0.00 | 90 | 1016.1 |
| 20260507050008 | 37 | 245 | 12.0 | 15.0 | 0.00 | 0.01 | 0.00 | 90 | 1016.1 |
| 20260507045008 | 36 | 244 | 11.0 | 13.0 | 0.00 | 0.01 | 0.00 | 91 | 1016.3 |
| 20260507044508 | 36 | 244 | 10.0 | 13.0 | 0.00 | 0.01 | 0.00 | 91 | 1016.4 |
| 20260507044009 | 36 | 242 | 10.0 | 12.0 | 0.00 | 0.01 | 0.00 | 90 | 1016.4 |
| 20260507043509 | 37 | 240 | 9.0 | 12.0 | 0.00 | 0.01 | 0.00 | 89 | 1016.6 |
| 20260507043009 | 37 | 239 | 9.0 | 12.0 | 0.00 | 0.01 | 0.00 | 88 | 1016.6 |
| 20260507042508 | 38 | 238 | 9.0 | 12.0 | 0.00 | 0.01 | 0.00 | 87 | 1016.7 |
| 20260507042008 | 38 | 241 | 10.0 | 12.0 | 0.00 | 0.01 | 0.00 | 87 | 1016.8 |
| 20260507041507 | 38 | 241 | 10.0 | 13.0 | 0.00 | 0.01 | 0.00 | 87 | 1016.8 |
| 20260507040508 | 38 | 248 | 11.0 | 14.0 | 0.00 | 0.02 | 0.00 | 86 | 1016.9 |
| 20260507040007 | 38 | 250 | 12.0 | 14.0 | 0.00 | 0.02 | 0.00 | 86 | 1016.9 |
| 20260507035009 | 38 | 248 | 10.0 | 13.0 | 0.00 | 0.02 | 0.00 | 86 | 1017.0 |
| 20260507034009 | 38 | 247 | 10.0 | 13.0 | 0.00 | 0.03 | 0.00 | 86 | 1017.1 |
| 20260507033508 | 38 | 246 | 9.0 | 13.0 | 0.00 | 0.03 | 0.00 | 86 | 1017.2 |
| 20260507033009 | 38 | 244 | 9.0 | 12.0 | 0.00 | 0.03 | 0.00 | 86 | 1017.3 |
| 20260507032507 | 38 | 241 | 9.0 | 10.0 | 0.00 | 0.03 | 0.00 | 85 | 1017.3 |
| 20260507031509 | 39 | 242 | 9.0 | 10.0 | 0.00 | 0.03 | 0.00 | 84 | 1017.3 |
| 20260507031007 | 39 | 244 | 9.0 | 10.0 | 0.00 | 0.03 | 0.00 | 84 | 1017.2 |
| 20260507030509 | 39 | 242 | 9.0 | 10.0 | 0.00 | 0.03 | 0.00 | 83 | 1017.1 |
| 20260507030008 | 40 | 243 | 9.0 | 10.0 | 0.00 | 0.03 | 0.00 | 82 | 1017.0 |
| 20260507025508 | 40 | 243 | 9.0 | 10.0 | 0.00 | 0.03 | 0.00 | 82 | 1017.0 |
| 20260507025008 | 40 | 247 | 9.0 | 10.0 | 0.00 | 0.04 | 0.00 | 82 | 1017.1 |
| 20260507024507 | 40 | 249 | 9.0 | 10.0 | 0.00 | 0.04 | 0.00 | 82 | 1017.0 |
| 20260507024008 | 41 | 245 | 9.0 | 10.0 | 0.00 | 0.04 | 0.00 | 81 | 1017.0 |
| 20260507023509 | 41 | 239 | 9.0 | 12.0 | 0.00 | 0.04 | 0.00 | 80 | 1016.9 |
| 20260507023009 | 42 | 237 | 9.0 | 12.0 | 0.00 | 0.04 | 0.00 | 78 | 1016.9 |
| 20260507022507 | 42 | 239 | 9.0 | 10.0 | 0.00 | 0.04 | 0.00 | 77 | 1016.8 |
| 20260507022007 | 43 | 240 | 9.0 | 10.0 | 0.00 | 0.04 | 0.00 | 75 | 1016.8 |
| 20260507021509 | 44 | 241 | 9.0 | 10.0 | 0.00 | 0.04 | 0.00 | 73 | 1016.8 |
| 20260507021008 | 44 | 242 | 9.0 | 12.0 | 0.00 | 0.04 | 0.00 | 71 | 1016.8 |
| 20260507020508 | 45 | 251 | 9.0 | 12.0 | 0.00 | 0.04 | 0.00 | 70 | 1016.7 |
| 20260507020009 | 45 | 252 | 9.0 | 12.0 | 0.00 | 0.05 | 0.00 | 69 | 1016.7 |
| 20260507015508 | 46 | 250 | 9.0 | 10.0 | 0.00 | 0.05 | 0.00 | 68 | 1016.7 |
| 20260507015008 | 46 | 252 | 9.0 | 12.0 | 0.00 | 0.05 | 0.00 | 67 | 1016.7 |
| 20260507014507 | 47 | 254 | 9.0 | 12.0 | 0.00 | 0.05 | 0.00 | 66 | 1016.7 |
| 20260507014009 | 48 | 256 | 9.0 | 13.0 | 0.00 | 0.05 | 0.00 | 64 | 1016.7 |
| 20260507013507 | 48 | 252 | 9.0 | 13.0 | 0.00 | 0.05 | 0.00 | 62 | 1016.7 |
| 20260507013008 | 48 | 248 | 9.0 | 12.0 | 0.00 | 0.05 | 0.00 | 62 | 1016.7 |
| 20260507012507 | 49 | 237 | 7.0 | 12.0 | 0.00 | 0.05 | 0.00 | 61 | 1016.7 |
| 20260507012009 | 49 | 247 | 8.0 | 12.0 | 0.00 | 0.06 | 0.00 | 59 | 1016.7 |
| 20260507011508 | 50 | 245 | 9.0 | 12.0 | 0.00 | 0.06 | 0.00 | 58 | 1016.7 |
| 20260507011009 | 50 | 253 | 8.0 | 13.0 | 0.00 | 0.06 | 0.00 | 58 | 1016.7 |
| 20260507010508 | 50 | 255 | 9.0 | 14.0 | 0.00 | 0.07 | 0.00 | 58 | 1016.7 |
| 20260507010009 | 50 | 255 | 10.0 | 14.0 | 0.00 | 0.08 | 0.00 | 57 | 1016.8 |
| 20260507005507 | 50 | 249 | 6.0 | 12.0 | 0.00 | 0.09 | 0.00 | 55 | 1016.8 |
| 20260507005008 | 51 | 256 | 7.0 | 10.0 | 0.00 | 0.09 | 0.00 | 54 | 1016.8 |
| 20260507004507 | 51 | 261 | 8.0 | 10.0 | 0.00 | 0.10 | 0.00 | 55 | 1016.8 |
| 20260507004008 | 51 | 257 | 7.0 | 13.0 | 0.00 | 0.11 | 0.00 | 56 | 1016.9 |
| 20260507003507 | 51 | 253 | 9.0 | 14.0 | 0.00 | 0.11 | 0.00 | 55 | 1016.9 |
| 20260507003008 | 51 | 252 | 10.0 | 16.0 | 0.00 | 0.12 | 0.00 | 53 | 1016.9 |
| 20260507002507 | 51 | 253 | 12.0 | 16.0 | 0.00 | 0.12 | 0.00 | 53 | 1016.9 |
| 20260507002009 | 52 | 258 | 13.0 | 16.0 | 0.00 | 0.12 | 0.00 | 52 | 1017.0 |
| 20260507001507 | 52 | 265 | 10.0 | 15.0 | 0.00 | 0.13 | 0.00 | 50 | 1017.0 |
| 20260507001008 | 52 | 275 | 11.0 | 17.0 | 0.00 | 0.13 | 0.00 | 49 | 1017.0 |
| 20260507000507 | 52 | 258 | 12.0 | 17.0 | 0.00 | 0.14 | 0.00 | 49 | 1017.1 |
| 20260507000007 | 53 | 259 | 12.0 | 16.0 | 0.00 | 0.15 | 0.00 | 50 | 1017.1 |
| 20260506235507 | 53 | 256 | 13.0 | 18.0 | 0.00 | 0.15 | 0.00 | 47 | 1017.1 |
| 20260506235007 | 53 | 257 | 12.0 | 18.0 | 0.00 | 0.16 | 0.00 | 48 | 1017.2 |
| 20260506234506 | 52 | 239 | 12.0 | 16.0 | 0.00 | 0.16 | 0.00 | 50 | 1017.1 |
| 20260506234007 | 52 | 243 | 9.0 | 14.0 | 0.00 | 0.17 | 0.00 | 51 | 1017.1 |
| 20260506233507 | 52 | 285 | 7.0 | 14.0 | 0.00 | 0.17 | 0.00 | 50 | 1017.2 |
| 20260506233007 | 52 | 264 | 8.0 | 16.0 | 0.00 | 0.17 | 0.00 | 50 | 1017.3 |
| 20260506232507 | 53 | 244 | 9.0 | 16.0 | 0.00 | 0.17 | 0.00 | 50 | 1017.3 |
| 20260506232007 | 53 | 231 | 12.0 | 15.0 | 0.00 | 0.17 | 0.00 | 52 | 1017.3 |
| 20260506231008 | 52 | 274 | 6.0 | 13.0 | 0.00 | 0.18 | 0.00 | 49 | 1017.3 |
| 20260506230507 | 52 | 275 | 10.0 | 14.0 | 0.00 | 0.18 | 0.00 | 53 | 1017.4 |
| 20260506230006 | 52 | 248 | 9.0 | 14.0 | 0.00 | 0.18 | 0.00 | 51 | 1017.4 |
| 20260506225507 | 52 | 260 | 9.0 | 14.0 | 0.00 | 0.19 | 0.00 | 51 | 1017.5 |
| 20260506224507 | 51 | 278 | 9.0 | 12.0 | 0.00 | 0.20 | 0.00 | 53 | 1017.5 |
| 20260506224008 | 51 | 281 | 6.0 | 12.0 | 0.00 | 0.20 | 0.00 | 50 | 1017.5 |
| 20260506223006 | 51 | 279 | 6.0 | 13.0 | 0.00 | 0.21 | 0.00 | 52 | 1017.6 |
| 20260506222007 | 51 | 240 | 9.0 | 12.0 | 0.00 | 0.21 | 0.00 | 54 | 1017.7 |
| 20260506221507 | 51 | 240 | 6.0 | 13.0 | 0.00 | 0.21 | 0.00 | 54 | 1017.7 |
| 20260506221006 | 51 | 232 | 6.0 | 13.0 | 0.00 | 0.22 | 0.00 | 54 | 1017.7 |
| 20260506220507 | 51 | 254 | 9.0 | 15.0 | 0.00 | 0.22 | 0.00 | 54 | 1017.7 |
| 20260506220007 | 51 | 299 | 7.0 | 15.0 | 0.00 | 0.22 | 0.00 | 51 | 1017.8 |
| 20260506215506 | 51 | 251 | 7.0 | 10.0 | 0.00 | 0.22 | 0.00 | 52 | 1017.9 |
| 20260506215006 | 51 | 270 | 8.0 | 10.0 | 0.00 | 0.22 | 0.00 | 51 | 1017.9 |
| 20260506214508 | 51 | 275 | 6.0 | 14.0 | 0.00 | 0.22 | 0.00 | 50 | 1017.9 |
| 20260506214006 | 51 | 242 | 7.0 | 14.0 | 0.00 | 0.22 | 0.00 | 52 | 1018.0 |
| 20260506213506 | 50 | 294 | 8.0 | 10.0 | 0.00 | 0.23 | 0.00 | 52 | 1018.1 |
| 20260506213006 | 50 | 300 | 2.0 | 8.0 | 0.00 | 0.23 | 0.00 | 54 | 1018.2 |
| 20260506212506 | 50 | 240 | 1.0 | 7.0 | 0.00 | 0.23 | 0.00 | 53 | 1018.2 |
| 20260506212007 | 50 | 278 | 1.0 | 9.0 | 0.00 | 0.23 | 0.00 | 52 | 1018.3 |
| 20260506211506 | 50 | 310 | 5.0 | 10.0 | 0.00 | 0.24 | 0.00 | 51 | 1018.4 |
| 20260506211006 | 50 | 280 | 5.0 | 10.0 | 0.00 | 0.24 | 0.00 | 52 | 1018.4 |
| 20260506210507 | 50 | 315 | 8.0 | 10.0 | 0.00 | 0.24 | 0.00 | 51 | 1018.5 |
| 20260506210007 | 50 | 302 | 7.0 | 10.0 | 0.00 | 0.24 | 0.00 | 51 | 1018.5 |
| 20260506205507 | 50 | 344 | 3.0 | 9.0 | 0.00 | 0.24 | 0.00 | 53 | 1018.6 |
| 20260506205007 | 50 | 312 | 7.0 | 9.0 | 0.00 | 0.24 | 0.00 | 51 | 1018.7 |
| 20260506204508 | 51 | 233 | 6.0 | 12.0 | 0.00 | 0.24 | 0.00 | 53 | 1018.9 |
| 20260506203506 | 50 | 327 | 5.0 | 9.0 | 0.00 | 0.25 | 0.00 | 51 | 1019.0 |
| 20260506203008 | 50 | 283 | 5.0 | 9.0 | 0.00 | 0.25 | 0.00 | 54 | 1019.0 |
| 20260506202507 | 49 | 329 | 4.0 | 7.0 | 0.00 | 0.25 | 0.00 | 53 | 1019.0 |
| 20260506202007 | 49 | 26 | 2.0 | 8.0 | 0.00 | 0.25 | 0.00 | 53 | 1019.1 |
| 20260506201507 | 49 | 63 | 1.0 | 12.0 | 0.00 | 0.26 | 0.00 | 56 | 1019.1 |
| 20260506201006 | 49 | 351 | 5.0 | 12.0 | 0.00 | 0.26 | 0.00 | 52 | 1019.1 |
| 20260506200507 | 50 | 349 | 5.0 | 10.0 | 0.00 | 0.27 | 0.00 | 52 | 1019.1 |
| 20260506200006 | 50 | 332 | 5.0 | 13.0 | 0.00 | 0.27 | 0.00 | 52 | 1019.3 |
| 20260506195006 | 49 | 320 | 3.0 | 10.0 | 0.00 | 0.28 | 0.00 | 56 | 1019.2 |
| 20260506194506 | 49 | 338 | 5.0 | 10.0 | 0.00 | 0.28 | 0.00 | 56 | 1019.3 |
| 20260506194006 | 49 | 63 | 2.0 | 10.0 | 0.00 | 0.29 | 0.00 | 55 | 1019.3 |
| 20260506193506 | 49 | 55 | 3.0 | 10.0 | 0.00 | 0.29 | 0.00 | 54 | 1019.2 |
| 20260506193006 | 49 | 16 | 7.0 | 10.0 | 0.00 | 0.30 | 0.00 | 58 | 1019.3 |
| 20260506192506 | 49 | 271 | 4.0 | 9.0 | 0.00 | 0.30 | 0.00 | 58 | 1019.3 |
| 20260506191006 | 48 | 8 | 6.0 | 12.0 | 0.00 | 0.31 | 0.00 | 58 | 1019.4 |
| 20260506190506 | 48 | 301 | 7.0 | 10.0 | 0.00 | 0.31 | 0.00 | 58 | 1019.4 |
| 20260506185506 | 47 | 303 | 5.0 | 9.0 | 0.00 | 0.31 | 0.00 | 58 | 1019.6 |
| 20260506185006 | 47 | 320 | 3.0 | 6.0 | 0.00 | 0.31 | 0.00 | 61 | 1019.6 |
| 20260506184508 | 47 | 54 | 3.0 | 6.0 | 0.00 | 0.32 | 0.00 | 65 | 1019.6 |
| 20260506184006 | 47 | 257 | 1.0 | 8.0 | 0.00 | 0.32 | 0.00 | 61 | 1019.6 |
| 20260506183007 | 47 | 10 | 5.0 | 12.0 | 0.00 | 0.33 | 0.00 | 64 | 1019.7 |
| 20260506182506 | 47 | 25 | 3.0 | 12.0 | 0.00 | 0.33 | 0.00 | 65 | 1019.7 |
| 20260506182006 | 46 | 73 | 6.0 | 8.0 | 0.00 | 0.33 | 0.00 | 63 | 1019.8 |
| 20260506181506 | 47 | 18 | 2.0 | 8.0 | 0.00 | 0.34 | 0.00 | 71 | 1019.9 |
| 20260506181006 | 46 | 87 | 4.0 | 8.0 | 0.00 | 0.34 | 0.00 | 72 | 1019.9 |
| 20260506180507 | 47 | 49 | 5.0 | 9.0 | 0.00 | 0.34 | 0.00 | 69 | 1019.9 |
| 20260506180006 | 47 | 50 | 5.0 | 10.0 | 0.00 | 0.35 | 0.00 | 69 | 1019.9 |
| 20260506175507 | 47 | 62 | 7.0 | 10.0 | 0.00 | 0.35 | 0.00 | 72 | 1019.8 |
| 20260506174005 | 46 | 33 | 5.0 | 9.0 | 0.00 | 0.36 | 0.00 | 69 | 1019.9 |
| 20260506173006 | 46 | 44 | 7.0 | 9.0 | 0.00 | 0.37 | 0.00 | 71 | 1019.8 |
| 20260506172005 | 46 | 91 | 8.0 | 10.0 | 0.00 | 0.38 | 0.00 | 75 | 1019.9 |
| 20260506171005 | 45 | 43 | 5.0 | 7.0 | 0.00 | 0.38 | 0.00 | 75 | 1020.0 |
| 20260506170506 | 45 | 63 | 1.0 | 7.0 | 0.00 | 0.38 | 0.00 | 79 | 1020.1 |
| 20260506170005 | 45 | 7 | 5.0 | 9.0 | 0.00 | 0.39 | 0.00 | 80 | 1020.2 |
| 20260506165505 | 44 | 48 | 6.0 | 9.0 | 0.00 | 0.39 | 0.00 | 79 | 1020.2 |
| 20260506165006 | 44 | 71 | 6.0 | 7.0 | 0.00 | 0.40 | 0.00 | 77 | 1020.1 |
| 20260506164506 | 43 | 71 | 3.0 | 7.0 | 0.00 | 0.40 | 0.00 | 79 | 1020.2 |
| 20260506164006 | 43 | 99 | 3.0 | 7.0 | 0.00 | 0.41 | 0.00 | 81 | 1020.1 |
| 20260506163506 | 43 | 72 | 6.0 | 9.0 | 0.00 | 0.41 | 0.00 | 80 | 1020.1 |
| 20260506163006 | 44 | 51 | 5.0 | 10.0 | 0.00 | 0.41 | 0.00 | 78 | 1020.1 |
| 20260506162005 | 43 | 35 | 7.0 | 12.0 | 0.00 | 0.43 | 0.00 | 83 | 1019.9 |
| 20260506161505 | 43 | 70 | 6.0 | 9.0 | 0.00 | 0.43 | 0.00 | 82 | 1019.8 |
| 20260506161006 | 43 | 45 | 4.0 | 9.0 | 0.00 | 0.44 | 0.00 | 84 | 1019.9 |
| 20260506160505 | 43 | 32 | 6.0 | 9.0 | 0.00 | 0.45 | 0.00 | 84 | 1019.9 |
| 20260506160005 | 43 | 15 | 6.0 | 9.0 | 0.00 | 0.46 | 0.00 | 84 | 1019.8 |
| 20260506155505 | 43 | 48 | 6.0 | 12.0 | 0.00 | 0.46 | 0.00 | 85 | 1019.8 |
| 20260506155005 | 43 | 67 | 8.0 | 12.0 | 0.00 | 0.47 | 0.00 | 88 | 1019.8 |
| 20260506154506 | 43 | 40 | 9.0 | 13.0 | 0.00 | 0.47 | 0.00 | 84 | 1019.8 |
| 20260506154006 | 43 | 54 | 9.0 | 13.0 | 0.00 | 0.48 | 0.00 | 88 | 1019.8 |
| 20260506153506 | 43 | 47 | 9.0 | 13.0 | 0.00 | 0.48 | 0.00 | 86 | 1019.6 |
| 20260506153006 | 42 | 51 | 7.0 | 13.0 | 0.00 | 0.48 | 0.00 | 91 | 1019.6 |
| 20260506152505 | 42 | 53 | 8.0 | 12.0 | 0.00 | 0.48 | 0.00 | 92 | 1019.5 |
| 20260506152006 | 42 | 72 | 7.0 | 10.0 | 0.00 | 0.49 | 0.00 | 91 | 1019.4 |
| 20260506151506 | 42 | 77 | 6.0 | 9.0 | 0.00 | 0.49 | 0.00 | 93 | 1019.4 |
| 20260506151005 | 41 | 52 | 5.0 | 10.0 | 0.00 | 0.49 | 0.00 | 93 | 1019.4 |
| 20260506150506 | 41 | 42 | 6.0 | 10.0 | 0.00 | 0.49 | 0.00 | 92 | 1019.5 |
| 20260506150005 | 41 | 60 | 8.0 | 10.0 | 0.00 | 0.49 | 0.00 | 93 | 1019.4 |
| 20260506145505 | 40 | 59 | 7.0 | 10.0 | 0.00 | 0.50 | 0.00 | 93 | 1019.3 |
| 20260506145005 | 40 | 46 | 7.0 | 10.0 | 0.00 | 0.50 | 0.00 | 93 | 1019.1 |
| 20260506144505 | 40 | 42 | 8.0 | 10.0 | 0.00 | 0.50 | 0.00 | 94 | 1019.1 |
| 20260506144006 | 40 | 43 | 9.0 | 10.0 | 0.00 | 0.50 | 0.00 | 93 | 1018.9 |
| 20260506143507 | 40 | 43 | 7.0 | 10.0 | 0.00 | 0.51 | 0.00 | 94 | 1019.0 |
| 20260506143005 | 40 | 33 | 7.0 | 10.0 | 0.00 | 0.51 | 0.00 | 95 | 1019.1 |
| 20260506142506 | 40 | 30 | 7.0 | 10.0 | 0.00 | 0.52 | 0.00 | 95 | 1019.2 |
| 20260506141505 | 40 | 12 | 9.0 | 10.0 | 0.00 | 0.52 | 0.00 | 95 | 1019.4 |
| 20260506140505 | 39 | 18 | 9.0 | 12.0 | 0.00 | 0.52 | 0.00 | 95 | 1019.3 |
| 20260506140005 | 39 | 15 | 8.0 | 12.0 | 0.00 | 0.52 | 0.00 | 95 | 1019.2 |
| 20260506135505 | 38 | 14 | 10.0 | 13.0 | 0.00 | 0.52 | 0.00 | 95 | 1019.1 |
| 20260506134505 | 38 | 7 | 12.0 | 14.0 | 0.00 | 0.52 | 0.00 | 95 | 1019.1 |
| 20260506134005 | 38 | 14 | 10.0 | 13.0 | 0.00 | 0.52 | 0.00 | 94 | 1019.2 |
| 20260506133105 | 38 | 1 | 8.0 | 12.0 | 0.00 | 0.52 | 0.00 | 95 | 1019.1 |
| 20260506133005 | 38 | 355 | 9.0 | 12.0 | 0.00 | 0.52 | 0.00 | 94 | 1019.1 |
| 20260506132505 | 38 | 357 | 8.0 | 10.0 | 0.00 | 0.52 | 0.00 | 95 | 1019.0 |
| 20260506131505 | 37 | 356 | 7.0 | 8.0 | 0.00 | 0.52 | 0.00 | 95 | 1018.9 |
| 20260506131005 | 37 | 356 | 5.0 | 8.0 | 0.00 | 0.52 | 0.00 | 96 | 1018.9 |
| 20260506130006 | 37 | 351 | 4.0 | 6.0 | 0.00 | 0.52 | 0.00 | 96 | 1018.9 |
| 20260506125505 | 37 | 346 | 4.0 | 5.0 | 0.00 | 0.53 | 0.52 | 97 | 1018.6 |
| 20260506125005 | 37 | 332 | 2.0 | 5.0 | 0.00 | 0.53 | 0.52 | 97 | 1018.5 |
| 20260506124506 | 37 | 322 | 2.0 | 6.0 | 0.00 | 0.53 | 0.52 | 97 | 1018.4 |
| 20260506124006 | 36 | 310 | 2.0 | 6.0 | 0.00 | 0.53 | 0.52 | 97 | 1018.4 |
| 20260506123505 | 36 | 309 | 2.0 | 7.0 | 0.00 | 0.53 | 0.52 | 97 | 1018.3 |
| 20260506123005 | 36 | 316 | 5.0 | 7.0 | 0.00 | 0.53 | 0.52 | 97 | 1018.2 |
| 20260506122505 | 36 | 324 | 5.0 | 7.0 | 0.00 | 0.53 | 0.52 | 97 | 1018.2 |
| 20260506122005 | 36 | 320 | 6.0 | 7.0 | 0.00 | 0.53 | 0.52 | 97 | 1018.1 |
| 20260506121505 | 36 | 327 | 4.0 | 8.0 | 0.00 | 0.53 | 0.52 | 97 | 1017.9 |
| 20260506120504 | 36 | 329 | 6.0 | 9.0 | 0.00 | 0.54 | 0.52 | 98 | 1017.8 |
| 20260506120005 | 36 | 334 | 7.0 | 9.0 | 0.00 | 0.54 | 0.52 | 98 | 1017.9 |
| 20260506115505 | 35 | 334 | 6.0 | 8.0 | 0.00 | 0.54 | 0.52 | 97 | 1017.9 |
| 20260506115005 | 35 | 331 | 6.0 | 8.0 | 0.00 | 0.54 | 0.52 | 97 | 1017.8 |
| 20260506114005 | 35 | 328 | 4.0 | 7.0 | 0.00 | 0.54 | 0.52 | 97 | 1017.8 |
| 20260506113505 | 35 | 334 | 5.0 | 7.0 | 0.00 | 0.54 | 0.52 | 97 | 1017.8 |
| 20260506112504 | 35 | 10 | 6.0 | 10.0 | 0.00 | 0.54 | 0.52 | 97 | 1017.7 |
| 20260506111505 | 35 | 26 | 9.0 | 17.0 | 0.00 | 0.54 | 0.52 | 96 | 1017.6 |
| 20260506111005 | 36 | 32 | 13.0 | 17.0 | 0.00 | 0.54 | 0.52 | 97 | 1017.6 |
| 20260506110505 | 36 | 353 | 7.0 | 13.0 | 0.00 | 0.54 | 0.52 | 96 | 1017.6 |
| 20260506110005 | 37 | 344 | 6.0 | 10.0 | 0.00 | 0.54 | 0.52 | 96 | 1017.7 |
| 20260506105504 | 37 | 307 | 7.0 | 13.0 | 0.00 | 0.54 | 0.52 | 96 | 1017.5 |
| 20260506105004 | 37 | 314 | 10.0 | 13.0 | 0.00 | 0.54 | 0.52 | 96 | 1017.4 |
| 20260506104504 | 39 | 315 | 7.0 | 12.0 | 0.00 | 0.54 | 0.52 | 96 | 1017.5 |
| 20260506104004 | 38 | 309 | 5.0 | 7.0 | 0.00 | 0.54 | 0.52 | 96 | 1017.4 |